Погода в Сокотре

Йемен     12°26′49″N   53°53′44″E
темп.,
°C
ветер,
м/с
пор.,
м/с
влажн.,
%
обл.,
%
осадки,
мм/ч
давл.,
гПа
погр.,
м
3 марта, ср
ср300:00+20ссв22850 0.0 101495
03:00+19св23890 0.0 101380
06:00+19св33910 0.0 101491
09:00+25всв34570 0.0 1016716
12:00+29всв46410 0.0 10141415
15:00+28всв46450 0.0 10121160
18:00+24вюв12650 0.0 1013413
21:00+22всв11793 0.0 1015174
4 марта, чт
чт400:00+20св12872 0.0 1014106
03:00+19ссв12911 0.0 101262
06:00+20ссв34890 0.0 101488
09:00+26всв46400 0.0 1015773
12:00+30всв66280 0.0 10131270
15:00+29всв45292 0.0 10111224
18:00+24всв124258 0.0 1013138
21:00+21ссв226028 0.0 101480
5 марта, пт
пт500:00+20ссв33660 0.0 101359
03:00+19ссв33750 0.0 101245
06:00+18ссв34790 0.0 101442
09:00+26св45280 0.0 1015779
12:00+29всв56170 0.0 10131307
15:00+29всв342322 0.0 10111207
18:00+23с225126 0.0 1013196
21:00+21св226713 0.0 1015126
6 марта, сб
сб600:00+19ссв23740 0.0 101486
03:00+18ссв23800 0.0 101337
06:00+18св22730 0.0 101535
09:00+26всв12360 0.0 1017720
12:00+30вюв34270 0.0 10141923
15:00+29вюв44330 0.0 10131803
18:00+24вюв12520 0.0 1014259
21:00+21с12650 0.0 101575
7 марта, вс
вс700:00+20с12690 0.0 101341
03:00+19ссв336611 0.0 101230
06:00+19ссв337078 0.0 101436
09:00+27св563174 0.0 1016901
12:00+30св672456 0.0 10131812
15:00+29св662835 0.0 10111376
18:00+23с23540 0.0 1012190
21:00+21ссв23660 0.0 101392